Location: Fourques
(43.6942°N, 4.6075°E)
Time: 03:36:13
(UTC+00:00)

Daily predictions for brighter satellites

Satellite Brightness Start Highest point End
(mag) Time Altitude Azimuth Time Altitude Azimuth Time Altitude Azimuth
Cosmos 1707 Rocket 4.1 00:01:46 10° NNW 00:05:18 53° NW 00:05:18 53° NW
Okean 1 4.2 00:02:27 10° NNW 00:05:27 48° NNW 00:05:27 48° NNW
Cosmos 494 Rocket 3.8 00:13:18 86° W 00:13:19 86° WNW 00:18:28 10° NNE
Cosmos 2285 Rocket 4.0 00:09:16 10° NNW 00:15:29 62° WSW 00:16:07 59° SW
Meteor 2-9 4.4 00:15:31 76° SE 00:15:47 79° E 00:21:12 10° NNE
Cosmos 2333 Rocket 2.3 00:10:32 10° NNW 00:16:01 59° WSW 00:16:01 59° WSW
ATLAS 5 CENTAUR R/B 3.0 00:19:02 10° NNW 00:24:29 53° NE 00:28:59 19° ESE
Cosmos 2360 Rocket 3.7 00:21:27 10° NW 00:25:09 23° W 00:25:09 23° W
Cosmos 1452 Rocket 4.2 00:22:32 10° NW 00:26:57 41° W 00:26:57 41° W
Cosmos 1980 4.4 00:22:24 10° NNW 00:27:53 48° ENE 00:30:19 30° ESE
Cosmos 2242 Rocket 4.5 00:23:53 10° N 00:28:02 39° ENE 00:28:16 39° E
PSLV R/B 4.2 00:23:34 10° N 00:28:13 53° WNW 00:28:18 53° WNW
Cosmos 1666 3.5 00:29:45 49° NNE 00:29:45 49° NNE 00:32:38 10° N
Meteor 1-14 Rocket 4.0 00:30:32 72° SW 00:31:05 82° W 00:36:41 10° N
Meteor 1-19 Rocket 4.5 00:26:00 10° NNW 00:31:31 51° W 00:31:46 50° WSW
Cosmos 2322 4.2 00:27:02 10° NW 00:32:15 45° W 00:32:15 45° W
Cosmos 1378 4.4 00:33:27 10° N 00:36:24 37° NE 00:36:24 37° NE
Cosmos 1536 4.1 00:40:02 32° E 00:40:02 32° E 00:43:19 10° NNE
APEX 4.0 00:40:59 72° S 00:41:32 80° ESE 00:47:48 10° NNE
Resurs 1-4 Rocket 3.0 00:38:17 10° NNE 00:43:11 36° E 00:44:08 34° ESE
Cosmos 2297 Rocket 2.4 00:46:29 52° SE 00:47:12 56° ESE 00:52:45 10° NNE
NOSS 3-1 (C) 4.3 00:44:33 10° NW 00:52:00 51° WSW 00:54:01 44° SSW
Cosmos 2237 Rocket 2.4 00:46:50 10° NNW 00:52:32 69° ENE 00:54:35 40° SE
Cosmos 1869 Rocket 4.2 00:53:48 46° ESE 00:54:03 46° E 00:58:21 10° NNE
Meteor 2-17 Rocket 4.4 00:54:55 56° SW 00:56:09 71° W 01:02:12 10° N
Cosmos 2227 Rocket 2.6 00:56:52 46° SE 00:57:49 51° ESE 01:03:16 10° NE
TSX-5 4.1 00:59:09 60° NNE 00:59:09 60° NNE 01:02:42 10° NNE
Cosmos 1709 Rocket 3.9 00:58:20 54° S 00:59:54 87° W 01:06:18 10° N
Cosmos 1470 Rocket 4.3 01:00:37 40° WNW 01:00:37 40° WNW 01:04:27 10° N
USA 229 DEB 3.9 00:55:30 10° NW 01:02:49 65° WSW 01:05:34 41° S
USA 229 3.9 00:55:36 10° NW 01:02:55 65° WSW 01:05:44 41° S
Timation 2 Rocket 4.5 01:01:41 38° SE 01:03:05 44° ESE 01:08:47 10° NE
EO 1 Del DPAF 4.5 01:00:55 10° N 01:03:46 32° NW 01:03:46 32° NW
Meteor 2-4 Rocket 4.1 00:58:49 10° NNW 01:04:31 49° W 01:05:16 46° WSW
Cosmos 1933 Rocket 3.9 01:07:30 54° WNW 01:07:30 54° WNW 01:11:51 10° N
Cosmos 1745 Rocket 4.5 01:06:16 39° WSW 01:07:44 45° WNW 01:13:43 10° N
UNK 4.4 01:06:32 36° ESE 01:08:01 51° ENE 01:12:33 10° N
YAOGAN 11 4.3 01:10:25 60° W 01:10:25 60° W 01:14:49 10° NNW
NOSS 0 Rocket 4.0 01:04:17 10° NNW 01:10:26 60° WSW 01:11:33 52° SSW
MOZ.5/SAFIR/RUBIN 5/SL-8 3.7 01:11:26 69° SW 01:11:41 71° WSW 01:16:26 10° NNW
Lacrosse 5 2.3 01:12:35 45° SE 01:12:47 45° SE 01:17:37 10° ENE
COSMOS 2428 3.7 01:08:12 10° NW 01:12:40 30° W 01:12:40 30° W
ADEOS Rocket 3.4 01:11:00 23° SE 01:14:23 51° ENE 01:19:42 10° N
SL-16 R/B 3.5 01:10:01 10° NNW 01:15:20 39° ENE 01:20:36 10° SE
SL-16 R/B 2.6 01:13:31 33° SSE 01:16:30 75° ENE 01:22:41 10° NNW
CZ-2D R/B 2.2 01:11:57 10° NNE 01:17:19 71° ESE 01:18:42 50° S
Cosmos 1544 3.4 01:18:15 64° N 01:18:15 64° N 01:21:24 10° N
COSMOS 2455 4.3 01:14:38 19° W 01:17:52 30° NW 01:23:05 10° NNE
Helios 1A 3.3 01:18:25 53° WNW 01:18:25 53° WNW 01:22:13 10° NNW
Okean 1-7 3.2 01:14:12 10° NNW 01:18:05 56° WNW 01:18:05 56° WNW
Cosmos 909 Rocket 4.2 01:18:54 45° SSW 01:21:02 75° ESE 01:28:28 10° NE
Okean 3 3.3 01:18:15 10° N 01:22:35 86° E 01:22:53 76° SSE
NOSS 3-1 (A) 4.3 01:15:42 10° NW 01:23:12 53° WSW 01:26:37 35° S
Cosmos 2219 Rocket 3.8 01:19:31 10° NW 01:22:37 19° W 01:22:37 19° W
ARGOS Delta rocket 4.3 01:20:44 10° N 01:25:15 42° WNW 01:25:47 41° W
ADEOS II 3.0 01:21:02 10° NNE 01:25:59 41° E 01:28:02 29° SE
Cosmos 1340 Rocket 3.8 01:27:12 35° WNW 01:27:12 35° WNW 01:30:32 10° N
Cosmos 2263 Rocket 4.4 01:23:50 10° SE 01:27:04 16° E 01:30:19 10° ENE
Cosmos 1743 2.6 01:33:42 83° SE 01:33:46 84° E 01:37:37 10° N
ASTEX 1 3.7 01:38:34 44° WSW 01:39:03 45° W 01:43:46 10° NNW
Cosmos 1975 4.5 01:38:02 22° SE 01:39:37 28° E 01:43:09 10° NNE
AQUA 3.8 01:35:50 10° NNE 01:40:37 76° ESE 01:41:55 48° S
Cosmos 2219 3.3 01:42:03 41° SW 01:43:59 65° WNW 01:49:44 10° NNE
Helios 1B rocket 2.3 01:40:43 10° NNE 01:44:50 84° E 01:45:31 61° S
Cosmos 2074 Rocket 4.0 01:43:18 35° S 01:46:10 82° E 01:52:25 10° N
Cosmos 2344 4.5 01:44:38 20° SSE 01:48:57 35° ESE 01:55:38 10° NE
Cosmos 614 Rocket 4.2 01:52:44 36° S 01:54:44 65° ESE 01:59:55 10° NNE
Meteor 1-11 Rocket 4.3 01:54:11 33° WSW 01:55:52 41° WNW 02:01:06 10° N
Cosmos 2084 Rocket 3.3 01:51:41 10° NW 01:55:56 74° SW 01:57:51 32° SSE
Iridium 4 Rocket 4.2 01:50:36 10° N 01:55:57 56° E 02:00:21 17° SSE
Landsat 4 4.5 01:53:55 10° NNE 01:57:29 44° E 01:58:33 34° SE
Cosmos 2181 Rocket 4.3 01:53:16 10° NNW 01:59:21 48° W 02:01:43 33° SW
Cosmos 1992 Rocket 4.0 01:57:14 10° NNW 02:02:25 63° WSW 02:04:37 33° S
Cosmos 2082 3.7 02:02:39 35° SSW 02:05:11 89° ESE 02:10:57 10° NNE
MINOTAUR 4 R/B 4.0 02:05:02 44° SSE 02:06:04 82° ENE 02:09:39 10° N
Cosmos 1733 Rocket 3.0 02:05:38 41° S 02:07:10 87° W 02:11:39 10° N
ATLAS 5 CENTAUR R/B 3.1 02:03:52 10° NW 02:09:06 33° WSW 02:10:22 31° SW
Cosmos 1842 3.1 02:07:38 10° N 02:11:31 85° E 02:13:03 35° S
CZ-4C R/B 3.8 02:06:04 10° NNW 02:13:06 54° NE 02:21:14 10° ESE
IDEFIX/ARIANE 42P 2.7 02:13:31 10° NNE 02:18:42 68° ESE 02:22:01 22° S
USA 215 4.3 02:13:08 10° ENE 02:18:58 34° SE 02:23:07 17° S
Cosmos 1356 Rocket 4.0 02:17:50 23° SSE 02:20:07 50° E 02:24:01 10° NNE
Resurs 1-4 Rocket 3.2 02:18:15 10° N 02:22:53 31° WNW 02:25:13 22° WSW
CBERS-1 4.0 02:21:26 10° NNE 02:26:37 83° ESE 02:29:52 23° S
Cosmos 1610 Rocket 4.5 02:24:24 24° SSW 02:28:25 75° W 02:34:48 10° N
Cosmos 2341 Rocket 4.5 02:23:01 12° S 02:28:47 59° E 02:34:54 10° NNE
Cosmos 2251 Rocket 3.8 02:27:52 28° SW 02:30:29 55° WNW 02:35:43 10° NNE
Cosmos 2297 Rocket 3.7 02:28:17 16° W 02:31:35 26° NW 02:36:17 10° N
Meteor 1-29 3.3 02:29:11 10° N 02:32:22 46° WNW 02:33:11 37° WSW
Cosmos 2237 Rocket 3.7 02:32:18 10° WNW 02:35:57 18° W 02:36:20 18° WSW
SL-08 R/B 4.5 02:35:26 10° SE 02:40:08 47° ENE 02:44:54 10° N
Okean 2 3.3 02:37:05 10° NNW 02:41:15 74° W 02:44:23 17° S
Cosmos 1238 Rocket 2.2 02:40:33 37° SW 02:41:30 60° W 02:44:45 10° N
Nadezhda 3 Rocket 4.1 02:35:28 10° NNW 02:41:45 62° W 02:47:13 14° S
Cosmos 2227 Rocket 3.5 02:38:41 16° W 02:42:07 27° NW 02:46:55 10° N
Spot 1 4.2 02:39:56 10° SSE 02:44:06 72° ENE 02:48:11 10° N
BREEZE-M DEB (TANK) 3.8 02:38:46 17° WSW 02:47:18 82° SSE 02:50:46 10° ENE
CZ-2C R/B 4.0 02:44:47 10° NE 02:48:47 29° E 02:52:48 10° SSE
Cosmos 1674 4.1 02:45:26 10° N 02:49:05 40° ENE 02:52:42 10° SSE
CZ-4C R/B 3.3 02:46:34 11° S 02:50:28 78° WSW 02:54:44 10° NNW
Cosmos 1190 Rocket 4.2 02:46:23 16° S 02:50:35 72° ESE 02:55:54 10° NNE
Lacrosse 5 2.8 02:51:46 14° W 02:55:50 40° NNW 03:00:37 10° NE
CZ-2D R/B 3.9 02:53:18 10° NNW 02:56:48 18° WNW 03:00:01 11° W
Cosmos 2227 4.4 02:52:28 15° SSW 02:57:12 72° ESE 03:02:48 10° NNE
Cosmos 1140 Rocket 3.5 02:54:33 18° SSW 02:58:31 79° WNW 03:03:48 10° NNE
SL-16 R/B 2.9 02:54:19 10° NW 02:59:20 33° WSW 03:04:02 11° SSW
ADEOS Rocket 4.0 02:57:57 18° SW 03:00:14 22° W 03:04:28 10° NW
SL-16 R/B 3.9 02:58:37 15° WSW 03:00:43 18° W 03:04:46 10° NW
ARIANE 5 R/B 2.6 02:59:08 10° NNE 03:04:20 83° ESE 03:09:32 10° SSW
Cosmos 1954 Rocket 4.5 03:00:10 10° S 03:05:23 61° ESE 03:10:39 10° NNE
ADEOS II 3.3 03:01:05 10° N 03:05:29 28° WNW 03:08:58 14° WSW
CZ-4B R/B 3.6 03:01:55 10° NNE 03:06:49 73° ESE 03:11:34 10° S
IRS-1C 4.1 03:03:06 10° N 03:08:27 75° WNW 03:13:33 11° SSW
Cosmos 1674 Rocket 4.5 03:04:55 10° NNW 03:08:47 30° W 03:11:40 15° SW
ATLAS CENTAUR R/B 1.8 03:06:59 13° SSW 03:10:04 49° ESE 03:13:52 10° NE
Cosmos 2263 Rocket 2.2 03:05:29 15° SSW 03:10:15 77° WNW 03:15:59 10° NNE
NOSS 3-3 (A) 3.9 03:05:31 15° SW 03:10:17 88° SE 03:16:48 10° NE
NOSS 3-3 (C) 3.9 03:05:38 15° SSW 03:10:23 88° SE 03:16:53 10° NE
CZ-2C R/B 4.3 03:09:35 10° NNE 03:12:57 32° E 03:16:20 10° SSE
Cosmos 1461 3.3 03:10:48 16° SW 03:14:22 61° NW 03:18:48 10° NNE
Cosmos 1975 4.3 03:13:47 15° WSW 03:16:03 23° WNW 03:19:20 10° NNW
Cosmos 1805 3.6 03:17:38 10° S 03:21:29 65° E 03:25:21 10° NNE
Cosmos 1300 Rocket 4.3 03:19:36 10° S 03:23:47 52° E 03:28:02 10° NNE
Cosmos 1975 Rocket 3.0 03:21:57 10° N 03:26:23 82° W 03:30:44 10° S
KORONAS-FOTON 3.9 03:25:36 10° NNW 03:29:29 62° W 03:33:20 10° S
GEOS 3 Rocket 3.8 03:26:56 10° SSE 03:32:09 53° WSW 03:37:23 10° NW
Cosmos 676 Rocket 4.1 03:27:36 10° SSW 03:32:55 82° WNW 03:38:18 10° NNE
SL-8 R/B 3.7 03:30:01 10° WSW 03:34:45 88° NNW 03:39:35 10° ENE
Cosmos 1707 4.1 03:32:16 10° NW 03:35:15 22° W 03:38:13 10° SW
Cosmos 44 3.4 03:32:19 10° NW 03:37:30 64° WSW 03:42:22 10° SSE
Cosmos 1943 3.2 03:34:38 10° NNW 03:40:17 63° WSW 03:45:53 10° S
PAYLOAD A 4.2 03:36:01 10° N 03:41:29 79° WNW 03:46:49 10° SSW
Meteor 1-12 Rocket 4.3 03:37:36 10° SSW 03:43:11 65° WNW 03:48:53 10° N
MOS 1 Rocket 3.9 03:40:36 10° SSE 03:45:35 73° ENE 03:50:54 10° N
USA 281 3.6 03:40:36 10° SE 03:47:07 75° ENE 03:53:42 10° NNW
BREEZE-M DEB (TANK) 2.3 03:45:10 10° WNW 03:48:06 73° SSW 03:51:34 10° ESE
Cosmos 1766 3.3 03:44:41 10° S 03:48:34 89° E 03:52:29 10° N
